TimeCST,TemperatureF,Dew PointF,Humidity,Sea Level PressureIn,VisibilityMPH,Wind Direction,Wind SpeedMPH,Gust SpeedMPH,PrecipitationIn,Events,Conditions,WindDirDegrees,DateUTC
12:15 AM,43.3,30.0,59,29.99,10.0,East,8.1,-,N/A,,Overcast,80,2013-02-21 06:15:00
12:35 AM,43.2,30.2,60,29.98,10.0,East,10.4,-,N/A,,Overcast,80,2013-02-21 06:35:00
12:55 AM,43.2,30.4,61,29.98,10.0,East,6.9,18.4,N/A,,Overcast,80,2013-02-21 06:55:00
1:15 AM,43.3,30.4,60,29.96,10.0,East,9.2,16.1,N/A,,Overcast,90,2013-02-21 07:15:00
1:35 AM,43.3,30.2,60,29.94,10.0,East,10.4,16.1,N/A,,Overcast,90,2013-02-21 07:35:00
1:55 AM,43.9,29.7,57,29.94,10.0,East,8.1,16.1,N/A,,Overcast,90,2013-02-21 07:55:00
2:15 AM,44.4,29.3,55,29.94,10.0,East,8.1,-,N/A,,Overcast,90,2013-02-21 08:15:00
2:35 AM,44.6,29.3,55,29.94,10.0,East,6.9,-,N/A,,Overcast,100,2013-02-21 08:35:00
2:55 AM,44.6,29.3,55,29.92,10.0,East,9.2,16.1,N/A,,Overcast,100,2013-02-21 08:55:00
3:15 AM,45.0,29.1,54,29.91,10.0,East,9.2,16.1,N/A,,Overcast,90,2013-02-21 09:15:00
3:35 AM,44.8,29.7,55,29.90,10.0,East,9.2,19.6,N/A,,Overcast,90,2013-02-21 09:35:00
3:55 AM,45.1,29.5,54,29.91,10.0,East,10.4,-,N/A,,Overcast,90,2013-02-21 09:55:00
4:15 AM,45.9,29.8,54,29.91,10.0,East,6.9,17.3,N/A,,Overcast,80,2013-02-21 10:15:00
4:35 AM,45.5,30.0,55,29.90,10.0,East,12.7,19.6,N/A,,Overcast,80,2013-02-21 10:35:00
4:55 AM,45.7,30.2,55,29.89,10.0,East,9.2,17.3,N/A,,Overcast,80,2013-02-21 10:55:00
5:15 AM,45.9,30.2,54,29.89,10.0,East,11.5,18.4,N/A,,Overcast,100,2013-02-21 11:15:00
5:35 AM,45.9,30.2,54,29.89,10.0,East,13.8,17.3,N/A,,Overcast,80,2013-02-21 11:35:00
5:55 AM,46.0,30.9,56,29.88,10.0,East,10.4,17.3,N/A,,Overcast,90,2013-02-21 11:55:00
6:15 AM,46.0,30.6,55,29.88,10.0,East,10.4,18.4,N/A,,Overcast,90,2013-02-21 12:15:00
6:35 AM,45.3,32.0,60,29.87,10.0,East,9.2,-,N/A,Rain,Rain,80,2013-02-21 12:35:00
6:55 AM,45.7,32.0,59,29.85,10.0,East,11.5,18.4,N/A,,Overcast,100,2013-02-21 12:55:00
7:15 AM,46.4,32.0,57,29.85,10.0,ESE,9.2,-,N/A,,Overcast,120,2013-02-21 13:15:00
7:35 AM,46.8,32.0,57,29.84,10.0,East,9.2,-,N/A,,Overcast,100,2013-02-21 13:35:00
7:55 AM,47.5,32.0,55,29.83,10.0,East,9.2,18.4,N/A,,Overcast,100,2013-02-21 13:55:00
8:15 AM,47.5,32.2,55,29.81,10.0,ESE,10.4,16.1,N/A,,Overcast,110,2013-02-21 14:15:00
8:35 AM,47.8,33.1,57,29.83,10.0,ESE,9.2,16.1,N/A,Rain,Light Rain,110,2013-02-21 14:35:00
8:55 AM,46.8,36.7,68,29.78,10.0,ESE,16.1,-,0.02,Thunderstorm,Thunderstorm,120,2013-02-21 14:55:00
9:15 AM,45.3,38.7,78,29.78,1.8,ESE,13.8,19.6,0.09,Rain-Thunderstorm,Heavy Thunderstorms and Rain,120,2013-02-21 15:15:00
9:35 AM,45.1,40.3,83,29.79,10.0,SE,10.4,17.3,0.09,Thunderstorm,Unknown,130,2013-02-21 15:35:00
9:55 AM,45.5,41.5,86,29.78,10.0,SE,10.4,17.3,0.11,Rain-Thunderstorm,Heavy Thunderstorms and Rain,130,2013-02-21 15:55:00
10:15 AM,45.9,42.8,89,29.79,7.0,SE,8.1,-,0.02,Rain,Rain,140,2013-02-21 16:15:00
10:35 AM,46.8,43.5,88,29.77,10.0,SE,9.2,-,0.03,Rain,Light Rain,130,2013-02-21 16:35:00
10:55 AM,48.2,44.8,88,29.76,10.0,SE,9.2,-,0.04,Rain,Light Rain,130,2013-02-21 16:55:00
11:15 AM,49.6,46.2,88,29.77,10.0,SE,6.9,-,N/A,,Overcast,140,2013-02-21 17:15:00
11:35 AM,50.9,47.5,88,29.76,10.0,SE,6.9,-,N/A,Thunderstorm,Overcast,140,2013-02-21 17:35:00
11:55 AM,52.0,48.7,89,29.75,10.0,SE,6.9,-,N/A,,Overcast,140,2013-02-21 17:55:00
12:15 PM,53.4,50.0,88,29.73,10.0,SE,8.1,-,N/A,Thunderstorm,Overcast,140,2013-02-21 18:15:00
12:35 PM,54.9,51.4,88,29.72,10.0,SE,9.2,-,N/A,Rain,Light Rain,140,2013-02-21 18:35:00
12:55 PM,55.8,52.5,89,29.69,10.0,SE,10.4,-,N/A,Rain-Thunderstorm,Light Thunderstorms and Rain,130,2013-02-21 18:55:00
1:15 PM,56.7,53.6,89,29.68,10.0,SSE,9.2,-,N/A,,Overcast,150,2013-02-21 19:15:00
1:35 PM,58.1,55.4,91,29.68,10.0,SSE,5.8,-,N/A,Rain-Thunderstorm,Light Thunderstorms and Rain,150,2013-02-21 19:35:00
1:55 PM,59.9,56.8,90,29.68,5.0,SSE,10.4,-,0.02,Rain-Thunderstorm,Heavy Thunderstorms and Rain,160,2013-02-21 19:55:00
2:15 PM,60.6,57.9,91,29.66,7.0,SE,6.9,16.1,N/A,,Overcast,140,2013-02-21 20:15:00
2:35 PM,62.2,59.0,89,29.65,10.0,SSE,8.1,-,N/A,,Overcast,160,2013-02-21 20:35:00
2:55 PM,64.0,60.4,88,29.65,10.0,South,6.9,-,N/A,,Overcast,170,2013-02-21 20:55:00
3:15 PM,65.1,61.0,86,29.65,10.0,South,5.8,-,N/A,,Overcast,190,2013-02-21 21:15:00
3:35 PM,64.8,61.0,88,29.67,10.0,SSW,8.1,-,N/A,,Overcast,210,2013-02-21 21:35:00
3:55 PM,64.6,61.0,88,29.68,10.0,West,10.4,-,N/A,,Overcast,280,2013-02-21 21:55:00
4:15 PM,60.8,56.7,86,29.70,10.0,NW,13.8,25.3,N/A,,Overcast,310,2013-02-21 22:15:00
4:35 PM,59.9,56.5,88,29.71,10.0,NW,5.8,-,N/A,,Overcast,320,2013-02-21 22:35:00
4:55 PM,59.4,55.4,87,29.72,10.0,NNW,4.6,-,N/A,,Overcast,330,2013-02-21 22:55:00
5:15 PM,58.6,54.9,87,29.73,10.0,WNW,6.9,-,N/A,,Overcast,300,2013-02-21 23:15:00
5:35 PM,57.7,54.3,88,29.75,10.0,WNW,6.9,-,N/A,,Overcast,290,2013-02-21 23:35:00
5:55 PM,56.1,52.7,88,29.77,10.0,NNW,9.2,-,N/A,,Overcast,330,2013-02-21 23:55:00
6:15 PM,54.0,51.1,90,29.79,10.0,NW,5.8,-,N/A,,Mostly Cloudy,320,2013-02-22 00:15:00
6:35 PM,52.7,49.3,88,29.80,10.0,Calm,Calm,-,N/A,,Scattered Clouds,0,2013-02-22 00:35:00
6:55 PM,51.1,48.2,90,29.81,10.0,North,6.9,-,N/A,,Clear,360,2013-02-22 00:55:00
7:15 PM,50.2,46.8,88,29.81,10.0,NNW,6.9,-,N/A,,Scattered Clouds,340,2013-02-22 01:15:00
7:35 PM,48.4,45.7,90,29.83,10.0,North,6.9,-,N/A,,Scattered Clouds,350,2013-02-22 01:35:00
7:55 PM,47.5,44.8,90,29.84,10.0,North,8.1,-,N/A,,Scattered Clouds,350,2013-02-22 01:55:00
8:35 PM,46.6,44.6,93,29.86,10.0,North,6.9,-,N/A,,Mostly Cloudy,350,2013-02-22 02:35:00
8:55 PM,46.4,43.9,91,29.86,10.0,North,6.9,-,N/A,,Scattered Clouds,360,2013-02-22 02:55:00
9:15 PM,45.9,43.7,92,29.87,10.0,North,3.5,-,N/A,,Scattered Clouds,10,2013-02-22 03:15:00
9:35 PM,45.5,43.7,93,29.88,10.0,NNE,3.5,-,N/A,,Overcast,30,2013-02-22 03:35:00
9:55 PM,45.0,43.0,93,29.89,10.0,North,3.5,-,N/A,,Mostly Cloudy,360,2013-02-22 03:55:00
10:15 PM,44.8,42.8,93,29.89,10.0,Calm,Calm,-,N/A,,Mostly Cloudy,0,2013-02-22 04:15:00
10:55 PM,44.2,42.4,93,29.90,7.0,North,5.8,-,N/A,,Overcast,360,2013-02-22 04:55:00
11:15 PM,44.1,42.4,94,29.91,4.0,Calm,Calm,-,N/A,,Overcast,0,2013-02-22 05:15:00
11:35 PM,43.9,42.3,94,29.92,2.5,Calm,Calm,-,N/A,,Overcast,0,2013-02-22 05:35:00
11:55 PM,43.5,41.9,94,29.92,1.0,North,4.6,-,N/A,,Overcast,350,2013-02-22 05:55:00